Time,TemperatureF,DewpointF,PressureIn,WindDirection,WindDirectionDegrees,WindSpeedMPH,WindSpeedGustMPH,Humidity,HourlyPrecipIn,Conditions,Clouds,dailyrainin,SoftwareType,DateUTC
2013-09-02 00:08:00,77.2,73.0,23.45,NW,307,5.0,-999.0,87,-99.99,,,0.00,weatherlink.com 1.10,2013-09-02 04:08:00,
2013-09-02 00:23:00,76.9,72.0,23.45,NE,44,0.0,-999.0,85,-99.99,,,0.00,weatherlink.com 1.10,2013-09-02 04:23:00,
2013-09-02 00:38:00,76.8,72.0,23.45,NNE,17,1.0,-999.0,85,-99.99,,,0.00,weatherlink.com 1.10,2013-09-02 04:38:00,
2013-09-02 00:53:00,76.7,72.0,23.45,NNE,15,0.0,-999.0,86,-99.99,,,0.00,weatherlink.com 1.10,2013-09-02 04:53:00,
2013-09-02 01:08:00,76.4,72.0,23.45,WNW,300,2.0,-999.0,86,-99.99,,,0.00,weatherlink.com 1.10,2013-09-02 05:08:00,
2013-09-02 01:23:00,76.3,72.0,23.45,NNE,21,1.0,-999.0,87,-99.99,,,0.00,weatherlink.com 1.10,2013-09-02 05:23:00,
2013-09-02 01:38:00,76.3,73.0,23.45,North,357,0.0,-999.0,89,-99.99,,,0.00,weatherlink.com 1.10,2013-09-02 05:38:00,
2013-09-02 01:53:00,75.6,72.0,23.45,NE,48,0.0,-999.0,88,-99.99,,,0.00,weatherlink.com 1.10,2013-09-02 05:53:00,
2013-09-02 02:08:00,75.2,72.0,23.45,NW,304,1.0,-999.0,88,-99.99,,,0.00,weatherlink.com 1.10,2013-09-02 06:08:00,
2013-09-02 02:23:00,75.1,72.0,23.45,WNW,298,1.0,-999.0,89,-99.99,,,0.00,weatherlink.com 1.10,2013-09-02 06:23:00,
2013-09-02 02:38:00,74.9,72.0,23.45,NNE,21,0.0,-999.0,90,-99.99,,,0.00,weatherlink.com 1.10,2013-09-02 06:38:00,
2013-09-02 02:53:00,74.8,72.0,23.45,NNW,346,2.0,-999.0,90,-99.99,,,0.00,weatherlink.com 1.10,2013-09-02 06:53:00,
2013-09-02 03:08:00,74.5,72.0,23.45,WSW,258,2.0,-999.0,90,-99.99,,,0.00,weatherlink.com 1.10,2013-09-02 07:08:00,
2013-09-02 03:23:00,74.2,72.0,23.45,NW,306,1.0,-999.0,91,-99.99,,,0.00,weatherlink.com 1.10,2013-09-02 07:23:00,
2013-09-02 03:38:00,74.0,71.0,23.29,West,277,3.0,-999.0,91,-99.99,,,0.00,weatherlink.com 1.10,2013-09-02 07:38:00,
2013-09-02 03:53:00,73.8,71.0,23.29,NE,39,3.0,-999.0,91,-99.99,,,0.00,weatherlink.com 1.10,2013-09-02 07:53:00,
2013-09-02 04:08:00,73.5,71.0,23.46,WSW,250,1.0,-999.0,92,-99.99,,,0.00,weatherlink.com 1.10,2013-09-02 08:08:00,
2013-09-02 04:23:00,73.1,71.0,23.46,WNW,295,4.0,-999.0,92,-99.99,,,0.00,weatherlink.com 1.10,2013-09-02 08:23:00,
2013-09-02 04:38:00,72.9,71.0,27.59,NNW,333,3.0,-999.0,92,-99.99,,,0.00,weatherlink.com 1.10,2013-09-02 08:38:00,
2013-09-02 04:53:00,72.9,71.0,26.18,WNW,287,3.0,-999.0,92,-99.99,,,0.00,weatherlink.com 1.10,2013-09-02 08:53:00,
2013-09-02 05:08:00,72.7,70.0,26.18,WNW,287,1.0,-999.0,92,-99.99,,,0.00,weatherlink.com 1.10,2013-09-02 09:08:00,
2013-09-02 05:23:00,72.7,70.0,26.18,SE,128,1.0,-999.0,92,-99.99,,,0.00,weatherlink.com 1.10,2013-09-02 09:23:00,
2013-09-02 05:38:00,72.8,70.0,26.18,East,81,3.0,-999.0,92,-99.99,,,0.00,weatherlink.com 1.10,2013-09-02 09:38:00,
2013-09-02 05:53:00,72.7,70.0,26.18,SSW,205,2.0,-999.0,91,-99.99,,,0.00,weatherlink.com 1.10,2013-09-02 09:53:00,
2013-09-02 06:08:00,72.6,70.0,23.45,WNW,300,0.0,-999.0,92,-99.99,,,0.00,weatherlink.com 1.10,2013-09-02 10:08:00,
2013-09-02 06:23:00,72.5,70.0,23.45,North,7,0.0,-999.0,92,-99.99,,,0.00,weatherlink.com 1.10,2013-09-02 10:23:00,
2013-09-02 06:38:00,72.4,70.0,23.45,NE,50,1.0,-999.0,93,-99.99,,,0.00,weatherlink.com 1.10,2013-09-02 10:38:00,
2013-09-02 06:53:00,72.2,70.0,23.45,SSE,162,3.0,-999.0,93,-99.99,,,0.00,weatherlink.com 1.10,2013-09-02 10:53:00,
2013-09-02 07:08:00,72.1,70.0,23.45,ENE,76,4.0,-999.0,93,-99.99,,,0.00,weatherlink.com 1.10,2013-09-02 11:08:00,
2013-09-02 07:23:00,72.2,70.0,25.70,East,96,0.0,-999.0,93,-99.99,,,0.00,weatherlink.com 1.10,2013-09-02 11:23:00,
2013-09-02 07:38:00,72.2,70.0,25.70,South,174,3.0,-999.0,93,-99.99,,,0.00,weatherlink.com 1.10,2013-09-02 11:38:00,
2013-09-02 07:53:00,72.2,70.0,25.70,East,86,4.0,-999.0,93,-99.99,,,0.00,weatherlink.com 1.10,2013-09-02 11:53:00,
2013-09-02 08:08:00,72.6,71.0,25.70,West,276,1.0,-999.0,93,-99.99,,,0.00,weatherlink.com 1.10,2013-09-02 12:08:00,
2013-09-02 08:23:00,73.0,71.0,25.70,WNW,289,2.0,-999.0,92,-99.99,,,0.00,weatherlink.com 1.10,2013-09-02 12:23:00,
2013-09-02 08:38:00,74.2,71.0,25.70,NW,310,0.0,-999.0,90,-99.99,,,0.00,weatherlink.com 1.10,2013-09-02 12:38:00,
2013-09-02 08:53:00,74.4,71.0,25.70,ENE,58,0.0,-999.0,89,-99.99,,,0.00,weatherlink.com 1.10,2013-09-02 12:53:00,
2013-09-02 09:08:00,76.1,72.0,25.70,North,352,0.0,-999.0,87,-99.99,,,0.00,weatherlink.com 1.10,2013-09-02 13:08:00,
2013-09-02 09:23:00,76.4,71.0,25.70,NNE,27,4.0,-999.0,84,-99.99,,,0.00,weatherlink.com 1.10,2013-09-02 13:23:00,
2013-09-02 09:38:00,76.1,71.0,25.70,NNW,331,3.0,-999.0,84,-99.99,,,0.00,weatherlink.com 1.10,2013-09-02 13:38:00,
2013-09-02 09:53:00,76.1,71.0,23.45,SSW,205,3.0,-999.0,84,-99.99,,,0.00,weatherlink.com 1.10,2013-09-02 13:53:00,
2013-09-02 10:08:00,77.6,71.0,23.45,NW,304,5.0,-999.0,81,-99.99,,,0.00,weatherlink.com 1.10,2013-09-02 14:08:00,
2013-09-02 10:23:00,78.6,72.0,23.45,WNW,286,6.0,-999.0,79,-99.99,,,0.00,weatherlink.com 1.10,2013-09-02 14:23:00,
2013-09-02 10:38:00,79.0,71.0,23.45,West,260,4.0,-999.0,76,-99.99,,,0.00,weatherlink.com 1.10,2013-09-02 14:38:00,
2013-09-02 10:53:00,79.3,71.0,23.45,West,276,3.0,-999.0,76,-99.99,,,0.00,weatherlink.com 1.10,2013-09-02 14:53:00,
2013-09-02 11:09:00,80.1,72.0,23.45,NNW,342,4.0,-999.0,76,-99.99,,,0.00,weatherlink.com 1.10,2013-09-02 15:09:00,
2013-09-02 11:24:00,80.7,72.0,23.45,West,260,4.0,-999.0,75,-99.99,,,0.00,weatherlink.com 1.10,2013-09-02 15:24:00,
2013-09-02 11:39:00,82.0,72.0,23.45,WSW,258,5.0,-999.0,72,-99.99,,,0.00,weatherlink.com 1.10,2013-09-02 15:39:00,
2013-09-02 11:54:00,82.8,72.0,23.45,SE,133,4.0,-999.0,70,-99.99,,,0.00,weatherlink.com 1.10,2013-09-02 15:54:00,
2013-09-02 12:09:00,83.7,72.0,23.45,SSW,197,5.0,-999.0,68,-99.99,,,0.00,weatherlink.com 1.10,2013-09-02 16:09:00,
2013-09-02 12:24:00,84.1,72.0,23.45,ENE,70,13.0,-999.0,67,-99.99,,,0.00,weatherlink.com 1.10,2013-09-02 16:24:00,
2013-09-02 12:39:00,84.6,71.0,23.45,SSW,202,3.0,-999.0,64,-99.99,,,0.00,weatherlink.com 1.10,2013-09-02 16:39:00,
2013-09-02 12:54:00,85.4,71.0,23.45,WNW,286,4.0,-999.0,63,-99.99,,,0.00,weatherlink.com 1.10,2013-09-02 16:54:00,
2013-09-02 13:09:00,85.2,71.0,23.45,NE,53,2.0,-999.0,63,-99.99,,,0.00,weatherlink.com 1.10,2013-09-02 17:09:00,
2013-09-02 13:24:00,86.1,72.0,23.45,SE,146,4.0,-999.0,62,-99.99,,,0.00,weatherlink.com 1.10,2013-09-02 17:24:00,
2013-09-02 13:39:00,84.3,69.0,23.45,East,101,6.0,-999.0,61,-99.99,,,0.00,weatherlink.com 1.10,2013-09-02 17:39:00,
2013-09-02 13:54:00,86.0,70.0,24.72,ESE,104,3.0,-999.0,59,-99.99,,,0.00,weatherlink.com 1.10,2013-09-02 17:54:00,
2013-09-02 14:09:00,85.3,69.0,24.72,SE,127,3.0,-999.0,58,-99.99,,,0.00,weatherlink.com 1.10,2013-09-02 18:09:00,
2013-09-02 14:24:00,86.3,69.0,24.72,East,98,5.0,-999.0,57,-99.99,,,0.00,weatherlink.com 1.10,2013-09-02 18:24:00,
2013-09-02 14:39:00,87.0,68.0,24.72,WSW,255,2.0,-999.0,53,-99.99,,,0.00,weatherlink.com 1.10,2013-09-02 18:39:00,
2013-09-02 14:54:00,84.8,73.0,24.72,NE,48,10.0,-999.0,67,-99.99,,,0.00,weatherlink.com 1.10,2013-09-02 18:54:00,
2013-09-02 15:09:00,83.4,70.0,24.72,ESE,121,9.0,-999.0,65,-99.99,,,0.00,weatherlink.com 1.10,2013-09-02 19:09:00,
2013-09-02 15:24:00,84.4,73.0,24.72,NNE,21,6.0,-999.0,68,-99.99,,,0.00,weatherlink.com 1.10,2013-09-02 19:24:00,
2013-09-02 15:39:00,84.4,72.0,23.45,East,82,16.0,-999.0,67,-99.99,,,0.00,weatherlink.com 1.10,2013-09-02 19:39:00,
2013-09-02 15:54:00,83.6,71.0,23.45,South,187,2.0,-999.0,66,-99.99,,,0.00,weatherlink.com 1.10,2013-09-02 19:54:00,
2013-09-02 16:09:00,84.3,72.0,23.45,ENE,65,7.0,-999.0,66,-99.99,,,0.00,weatherlink.com 1.10,2013-09-02 20:09:00,
2013-09-02 16:24:00,85.4,70.0,23.45,WSW,241,4.0,-999.0,60,-99.99,,,0.00,weatherlink.com 1.10,2013-09-02 20:24:00,
2013-09-02 16:39:00,85.0,69.0,23.45,ENE,69,12.0,-999.0,58,-99.99,,,0.00,weatherlink.com 1.10,2013-09-02 20:39:00,
2013-09-02 16:54:00,84.3,66.0,23.45,East,81,14.0,-999.0,55,-99.99,,,0.00,weatherlink.com 1.10,2013-09-02 20:54:00,
2013-09-02 17:09:00,84.4,68.0,23.45,SSE,165,2.0,-999.0,58,-99.99,,,0.00,weatherlink.com 1.10,2013-09-02 21:09:00,
2013-09-02 17:24:00,84.6,69.0,23.45,WSW,244,9.0,-999.0,60,-99.99,,,0.00,weatherlink.com 1.10,2013-09-02 21:24:00,
2013-09-02 17:39:00,83.8,69.0,23.45,NNW,344,12.0,-999.0,61,-99.99,,,0.00,weatherlink.com 1.10,2013-09-02 21:39:00,
2013-09-02 17:54:00,84.3,67.0,23.45,NNE,31,7.0,-999.0,57,-99.99,,,0.00,weatherlink.com 1.10,2013-09-02 21:54:00,
2013-09-02 18:09:00,83.2,66.0,23.45,East,91,11.0,-999.0,56,-99.99,,,0.00,weatherlink.com 1.10,2013-09-02 22:09:00,
2013-09-02 18:24:00,83.3,66.0,23.45,East,91,14.0,-999.0,56,-99.99,,,0.00,weatherlink.com 1.10,2013-09-02 22:24:00,
2013-09-02 18:39:00,83.2,65.0,23.45,East,91,13.0,-999.0,55,-99.99,,,0.00,weatherlink.com 1.10,2013-09-02 22:39:00,
2013-09-02 18:54:00,83.0,65.0,23.45,NNE,25,6.0,-999.0,55,-99.99,,,0.00,weatherlink.com 1.10,2013-09-02 22:54:00,
2013-09-02 19:09:00,83.0,63.0,25.47,East,95,12.0,-999.0,51,-99.99,,,0.00,weatherlink.com 1.10,2013-09-02 23:09:00,
2013-09-02 19:24:00,83.1,64.0,25.47,NE,56,4.0,-999.0,52,-99.99,,,0.00,weatherlink.com 1.10,2013-09-02 23:24:00,
2013-09-02 19:39:00,82.3,63.0,25.47,East,88,12.0,-999.0,53,-99.99,,,0.00,weatherlink.com 1.10,2013-09-02 23:39:00,
2013-09-02 19:54:00,81.8,64.0,25.47,ENE,58,3.0,-999.0,55,-99.99,,,0.00,weatherlink.com 1.10,2013-09-02 23:54:00,
2013-09-02 20:09:00,81.3,66.0,25.47,NW,307,4.0,-999.0,60,-99.99,,,0.00,weatherlink.com 1.10,2013-09-03 00:09:00,
2013-09-02 20:24:00,80.7,68.0,25.47,SSW,193,3.0,-999.0,66,-99.99,,,0.00,weatherlink.com 1.10,2013-09-03 00:24:00,
2013-09-02 20:39:00,80.1,69.0,25.47,South,169,4.0,-999.0,69,-99.99,,,0.00,weatherlink.com 1.10,2013-09-03 00:39:00,
2013-09-02 20:54:00,79.5,68.0,25.47,West,279,5.0,-999.0,69,-99.99,,,0.00,weatherlink.com 1.10,2013-09-03 00:54:00,
2013-09-02 21:09:00,79.0,66.0,25.47,SW,228,6.0,-999.0,64,-99.99,,,0.00,weatherlink.com 1.10,2013-09-03 01:09:00,
2013-09-02 21:24:00,78.7,67.0,25.47,West,262,4.0,-999.0,67,-99.99,,,0.00,weatherlink.com 1.10,2013-09-03 01:24:00,
2013-09-02 21:39:00,78.2,65.0,25.47,West,277,2.0,-999.0,63,-99.99,,,0.00,weatherlink.com 1.10,2013-09-03 01:39:00,
2013-09-02 21:54:00,77.9,66.0,25.47,SW,223,6.0,-999.0,67,-99.99,,,0.00,weatherlink.com 1.10,2013-09-03 01:54:00,
2013-09-02 22:09:00,77.4,63.0,25.47,West,263,6.0,-999.0,62,-99.99,,,0.00,weatherlink.com 1.10,2013-09-03 02:09:00,
2013-09-02 22:24:00,77.0,64.0,25.47,SSE,156,2.0,-999.0,64,-99.99,,,0.00,weatherlink.com 1.10,2013-09-03 02:24:00,
2013-09-02 22:39:00,76.7,62.0,25.47,NNW,343,4.0,-999.0,61,-99.99,,,0.00,weatherlink.com 1.10,2013-09-03 02:39:00,
2013-09-02 22:54:00,76.4,62.0,25.47,NE,34,4.0,-999.0,61,-99.99,,,0.00,weatherlink.com 1.10,2013-09-03 02:54:00,
2013-09-02 23:09:00,75.9,63.0,25.47,North,351,5.0,-999.0,64,-99.99,,,0.00,weatherlink.com 1.10,2013-09-03 03:09:00,
2013-09-02 23:25:00,75.3,61.0,25.47,NW,310,5.0,-999.0,62,-99.99,,,0.00,weatherlink.com 1.10,2013-09-03 03:25:00,
2013-09-02 23:39:00,74.8,61.0,25.47,West,267,6.0,-999.0,62,-99.99,,,0.00,weatherlink.com 1.10,2013-09-03 03:39:00,
2013-09-02 23:54:00,74.5,61.0,25.47,WSW,250,4.0,-999.0,62,-99.99,,,0.00,weatherlink.com 1.10,2013-09-03 03:54:00,